AKDT,Max TemperatureF,Mean TemperatureF,Min TemperatureF,Max Dew PointF,MeanDew PointF,Min DewpointF,Max Humidity, Mean Humidity, Min Humidity, Max Sea Level PressureIn, Mean Sea Level PressureIn, Min Sea Level PressureIn, Max VisibilityMiles, Mean VisibilityMiles, Min VisibilityMiles, Max Wind SpeedMPH, Mean Wind SpeedMPH, Max Gust SpeedMPH,PrecipitationIn, CloudCover, Events, WindDirDegrees
2012-10-1,39,32,27,38,32,27,100,100,100,30.13,30.11,30.08,10,10,8,14,6,,0.00,6,,130
2012-10-2,42,34,26,42,33,26,100,100,96,30.09,29.99,29.93,10,10,10,14,10,,0.00,3,,166
2012-10-3,45,39,33,42,35,31,100,93,63,30.03,29.97,29.94,10,10,10,13,9,,0.00,6,Rain,197
2012-10-4,36,31,26,35,31,26,100,97,92,30.04,29.98,29.91,10,8,0,18,6,23,0.00,4,Fog,54
2012-10-5,45,38,30,39,34,28,100,92,74,29.92,29.89,29.85,10,8,1,15,11,21,0.03,4,Rain,138
2012-10-6,44,36,30,34,30,27,89,82,68,30.03,29.90,29.83,10,10,10,14,8,,0.00,4,,200
2012-10-7,37,32,28,34,31,26,100,92,78,30.19,30.12,30.04,10,7,2,18,9,25,0.01,7,Rain,224
2012-10-8,32,28,23,32,30,22,100,98,85,30.56,30.29,30.20,10,5,1,15,8,21,0.00,7,Snow,310
2012-10-9,30,26,21,30,27,20,100,95,89,30.66,30.63,30.58,10,8,0,17,13,,0.00,8,Fog-Snow,249
2012-10-10,28,26,19,28,24,19,100,90,78,30.66,30.59,30.42,10,9,2,9,8,,0.00,8,Snow,252
2012-10-11,28,21,14,27,23,13,100,94,86,30.40,30.06,29.86,10,6,1,17,10,,0.00,8,Snow,241
2012-10-12,28,24,21,27,24,19,100,94,84,29.85,29.83,29.74,10,7,1,16,9,21,0.00,7,Snow,290
2012-10-13,26,22,18,25,23,16,100,95,86,29.72,29.67,29.60,10,7,1,18,13,,0.00,7,Snow,243
2012-10-14,19,14,10,17,14,8,95,92,88,29.59,29.51,29.46,10,10,10,12,8,,0.00,7,,175
2012-10-15,23,19,17,21,19,16,100,97,92,29.58,29.53,29.47,10,6,0,9,6,,0.00,8,Fog,197
2012-10-16,28,24,21,28,24,19,100,97,91,29.82,29.66,29.58,10,3,0,14,6,,0.00,8,Fog-Snow,318
2012-10-17,32,26,21,31,26,19,100,97,86,30.04,29.92,29.83,10,2,1,18,7,24,0.00,8,Snow,28
2012-10-18,30,28,24,30,28,23,100,96,89,30.27,30.17,30.04,10,4,0,21,12,29,0.00,8,Fog-Snow,346
2012-10-19,21,13,1,21,14,0,100,93,86,30.40,30.31,30.28,10,9,3,16,10,,0.00,8,Rain-Snow,235
2012-10-20,18,2,-9,13,-5,-11,100,92,82,30.48,30.45,30.40,10,6,1,13,9,,0.00,5,,185
2012-10-21,23,16,7,20,13,5,92,86,80,30.46,30.41,30.35,10,10,10,16,12,,0.00,4,,180
2012-10-22,10,2,-4,5,-1,-8,100,89,83,30.49,30.39,30.33,10,10,10,12,5,,0.00,0,,188
2012-10-23,28,19,10,27,22,6,100,93,84,30.76,30.63,30.51,10,10,10,12,9,,0.00,8,,211
2012-10-24,27,18,7,27,23,5,100,98,86,30.81,30.77,30.65,10,6,0,10,8,,0.00,6,Fog-Rain-Snow,202
2012-10-25,30,18,6,29,25,3,100,96,87,30.63,30.45,30.38,10,5,1,15,9,,0.00,7,Snow,211
2012-10-26,30,27,24,29,28,25,100,97,92,30.40,30.38,30.32,10,7,2,15,12,,0.00,8,Snow,248
2012-10-27,32,28,25,32,28,24,100,97,92,30.33,30.18,30.11,10,5,1,25,13,31,0.00,8,Snow,255
2012-10-28,28,22,17,27,22,15,100,94,85,30.19,30.11,30.02,10,8,1,23,18,31,0.00,7,Snow,258
2012-10-29,23,16,12,21,16,12,100,93,86,30.07,29.97,29.93,10,6,0,21,15,,0.00,7,Fog-Snow,255
2012-10-30,25,18,12,22,18,12,100,92,80,30.43,30.26,30.09,10,3,0,25,11,31,0.00,8,Fog-Snow,329
2012-10-31,23,18,9,21,19,9,100,91,81,30.54,30.48,30.43,10,5,0,21,14,29,0.00,8,Fog-Snow,358